Temperature
16 16 15 15 16 16 16 16 16 17 17 17 17 17 17 17 17 17 17 17 17 17 17 16 16 16 16 16 16 16 16 16 16 16 16 16 16 16 16 16 16 15 15
16 16 15 15 16 16 16 16 16 16 17 17 17 17 17 17 17 17 17 16 16 16 16 16 16 16 16 16 16 16 16 16 16 16 16 16 16 16 15 15 15 15 15
16 16 15 15 15 16 16 16 16 16 17 17 17 17 17 17 17 16 16 16 16 16 16 16 16 16 16 16 16 16 16 16 16 16 16 15 15 15 15 15 15 15 15
16 15 15 15 15 16 16 16 16 16 16 16 16 16 16 16 16 16 16 16 16 16 16 16 16 16 16 16 16 16 16 16 15 15 15 15 15 15 15 15 15 15 15
15 15 15 15 15 15 16 16 16 16 16 16 16 16 16 16 16 16 16 16 16 16 16 16 15 15 15 15 15 15 15 15 15 15 15 15 15 15 15 14 15 15 14
15 15 15 15 15 15 16 16 16 16 16 16 16 16 16 16 16 16 16 16 16 16 15 15 15 15 15 15 15 15 15 15 15 15 15 15 15 14 14 14 14 14 14
15 15 15 15 15 15 15 15 16 16 16 16 16 16 16 16 16 16 16 15 15 15 15 15 15 15 15 14 14 14 15 14 14 14 14 14 14 14 14 14 14 14 14
14 14 14 14 15 15 15 15 15 15 15 15 15 15 15 15 15 15 15 15 15 15 15 15 15 15 14 14 14 14 14 14 14 14 14 14 14 14 14 14 13 13 13
14 14 14 14 14 15 15 15 15 15 15 15 15 15 15 15 15 15 15 15 15 15 15 15 15 15 14 14 14 14 14 14 14 14 14 14 13 13 13 13 13 13 13
13 14 14 14 14 14 14 14 14 14 14 15 15 15 14 14 15 15 15 15 15 15 14 14 14 14 14 14 14 13 13 13 13 13 13 13 13 13 13 13 13 12 12
13 13 13 14 14 14 14 14 14 14 14 14 14 14 14 14 14 14 14 14 14 14 14 14 14 14 14 13 13 13 13 13 13 13 13 13 13 12 12 12 12 12 12
13 13 13 13 14 14 14 14 14 14 14 14 14 14 14 14 14 14 14 14 14 14 13 13 13 13 13 13 13 13 13 13 13 12 12 12 12 12 12 12 12 12 12
13 13 13 13 13 13 13 14 14 14 14 14 14 14 14 14 14 14 13 13 13 13 13 13 13 13 13 13 13 13 13 12 12 12 12 12 12 12 12 11 11 11 11
13 13 13 13 13 13 13 13 13 13 13 13 13 13 13 13 13 13 13 13 13 13 13 13 13 13 12 12 12 12 12 12 12 12 12 12 11 11 11 11 11 11 11
13 13 13 13 13 13 13 13 13 13 13 13 13 13 13 13 13 13 13 13 12 12 12 12 12 12 12 12 12 12 12 12 12 12 11 11 11 11 11 11 11 10 10
13 13 13 13 12 12 13 13 13 13 13 12 12 13 12 12 12 12 12 12 12 12 12 12 12 12 12 11 11 11 11 11 11 11 11 11 11 11 10 10 10 10 9
13 13 12 12 12 12 12 12 12 12 12 12 12 12 12 12 12 12 12 12 12 11 11 11 11 11 11 11 11 11 11 11 11 11 11 10 10 10 10 10 10 9 9
13 12 12 12 12 12 12 12 12 12 12 12 12 12 11 11 11 11 11 11 11 11 11 11 11 11 11 11 11 11 11 11 10 10 10 10 10 9 9 9 9 9 9
13 12 12 12 12 12 11 11 11 11 11 11 11 11 11 11 11 11 11 11 11 10 10 10 10 10 10 10 10 10 10 10 10 10 9 9 9 9 9 9 9 8 8
12 12 12 12 11 11 11 11 11 11 11 11 11 11 11 10 10 10 10 10 10 10 10 10 10 10 9 10 10 10 10 9 9 9 9 9 9 9 8 8 8 8 8
12 12 12 11 11 11 11 11 11 11 11 10 10 10 10 10 10 10 10 10 10 9 9 9 9 9 9 9 9 9 9 9 9 8 8 8 8 8 8 7 7 7 7
12 12 12 11 11 11 11 11 11 11 10 10 10 10 10 9 9 9 9 9 9 9 9 9 9 9 9 8 8 8 7 8 8 8 8 8 7 7 7 7 7 7 7
12 12 12 11 11 11 11 10 10 10 10 10 10 10 9 9 9 9 9 9 9 9 9 8 8 8 8 8 7 7 6 6 6 7 7 7 7 6 6 6 6 6 6
12 12 12 11 11 11 10 10 10 10 10 10 10 9 9 9 9 9 8 8 8 8 8 8 8 7 7 7 7 6 6 5 5 5 6 6 6 6 6 6 6 6 5
12 12 11 11 11 11 10 10 10 10 10 9 9 9 9 8 8 8 8 8 8 8 8 7 7 7 7 6 6 6 6 5 5 4 4 5 6 6 6 5 5 5 5
12 11 11 11 11 10 10 10 10 9 9 9 9 9 8 8 8 8 8 7 7 7 7 7 7 7 6 6 6 5 5 5 4 4 3 4 4 5 5 5 5 5 5
Wind_Speed
5 5 9 12 12 13 13 13 13 14 14 14 14 14 14 14 13 12 12 11 11 11 11 11 10 10 10 9 10 10 10 10 9 9 8 8 7 6 6 6 5 5 4
7 8 12 13 13 13 13 14 14 14 14 14 14 14 14 13 13 12 11 11 11 10 10 10 10 10 10 9 9 9 9 9 9 9 8 8 7 6 6 5 5 4 4
8 10 13 14 14 13 13 14 13 13 14 13 13 13 13 12 12 12 11 11 11 11 11 10 10 9 9 9 8 8 8 8 8 8 7 7 6 6 5 5 5 4 3
9 10 12 14 14 13 13 13 13 13 13 13 13 12 12 12 11 11 11 11 11 10 10 10 9 9 9 9 8 8 8 8 7 7 7 6 6 5 5 5 5 4 4
8 10 12 14 14 13 13 13 13 12 12 12 12 12 11 11 11 11 10 10 10 10 9 9 9 9 8 8 8 8 8 8 8 7 7 7 6 5 5 5 5 5 5
8 9 12 13 13 13 13 13 12 12 12 12 11 11 11 11 10 10 10 10 9 9 9 8 9 8 8 8 8 8 8 9 8 7 6 6 6 6 6 6 5 5 5
7 8 11 13 13 13 13 12 12 12 12 12 12 11 11 10 10 10 10 9 9 9 9 8 8 8 8 8 8 8 8 8 8 7 6 6 6 7 6 6 6 5 5
8 8 10 12 12 12 12 12 12 12 12 12 11 11 11 10 10 10 9 9 9 9 8 8 8 8 8 8 8 8 9 8 7 7 6 6 6 7 7 7 7 6 6
7 8 8 10 11 12 12 12 12 12 11 11 11 10 10 10 10 9 9 9 9 9 9 8 8 8 9 9 9 9 9 9 8 6 6 6 7 7 7 7 7 7 7
6 7 7 9 10 10 11 12 12 12 12 11 11 11 11 10 10 10 9 9 9 9 9 9 9 9 9 9 9 9 9 9 8 7 6 6 8 8 8 8 8 8 8
5 5 6 8 9 10 10 11 11 12 12 11 11 11 11 10 10 9 9 9 9 9 9 10 10 10 9 9 9 9 9 8 8 7 6 7 8 8 8 8 8 8 8
7 5 5 6 7 8 8 10 10 10 11 10 10 10 10 10 9 9 10 10 10 9 9 10 10 10 9 8 8 8 8 8 7 7 7 9 9 9 9 8 8 8 8
8 6 5 6 7 7 7 8 8 8 9 9 9 10 9 9 9 9 9 9 9 9 9 9 9 9 8 8 7 7 7 7 7 7 8 10 10 10 9 9 9 9 10
8 7 6 6 6 6 7 6 6 6 6 6 7 8 8 6 6 6 6 6 7 6 6 7 6 7 8 8 7 6 7 6 6 7 8 10 10 10 10 10 10 10 11
9 8 7 6 6 6 6 5 5 5 5 6 6 6 7 5 3 4 4 5 5 6 5 5 5 5 6 6 6 6 6 6 7 7 7 10 10 10 10 10 11 12 12
10 9 7 7 6 6 5 4 4 5 6 6 5 5 6 6 4 3 3 3 4 4 4 4 4 4 3 4 4 5 5 5 6 6 7 8 10 10 10 11 12 13 13
11 9 8 8 7 6 6 5 5 5 6 4 4 5 5 5 5 4 3 2 3 4 4 4 4 4 3 4 4 4 4 4 5 5 6 7 8 9 11 12 13 14 14
10 9 9 8 8 7 6 5 5 5 5 4 4 4 4 5 5 4 3 2 2 3 4 2 2 3 3 3 4 4 4 3 4 4 5 6 7 7 9 12 14 15 15
11 11 10 8 9 7 6 5 5 5 4 4 4 3 4 4 4 4 2 2 2 3 3 2 2 2 2 4 4 4 3 3 3 3 4 5 6 6 7 10 13 15 15
10 10 10 8 8 7 5 4 3 3 2 2 3 3 3 4 4 4 3 2 3 2 2 2 2 2 1 2 4 4 4 3 3 2 3 4 5 6 7 8 10 12 14
9 10 10 9 8 7 5 4 4 2 2 1 1 2 3 3 3 3 2 2 2 1 1 1 1 2 3 3 2 4 4 3 3 2 3 3 4 5 7 8 9 10 11
12 12 11 11 10 9 7 5 3 3 2 1 1 1 2 3 3 3 2 1 1 1 2 1 1 1 2 3 2 2 3 4 3 3 3 3 3 4 5 8 9 10 11
12 13 12 12 10 9 7 5 4 4 3 1 1 1 1 2 2 2 2 2 1 1 0 0 0 1 1 2 2 1 1 3 5 3 3 3 4 4 5 6 8 10 11
12 11 11 11 10 9 9 8 8 5 4 4 2 2 1 2 2 2 2 2 2 1 1 1 0 0 1 1 1 0 1 2 2 5 4 3 4 5 6 7 8 10 11
10 10 10 10 9 9 9 9 8 5 3 2 2 2 1 1 1 1 2 2 1 1 1 1 0 0 1 1 1 1 1 2 3 3 7 8 6 5 5 6 7 7 10
7 8 9 10 9 9 9 9 8 8 6 4 3 3 2 1 1 1 1 1 1 1 1 1 1 1 1 1 1 1 2 2 2 3 6 9 9 7 7 6 6 6 9
Wind_Direction
175 176 155 136 129 122 118 114 110 106 103 100 98 95 93 90 88 87 84 82 80 77 77 76 73 71 69 69 68 66 63 61 58 55 52 57 62 62 63 57 52 59 65
152 157 146 137 131 126 122 116 111 109 106 102 99 96 93 89 86 85 83 79 77 75 74 73 71 69 65 65 67 66 63 59 56 52 47 46 51 56 56 50 44 54 53
136 143 140 137 133 128 123 119 115 111 107 104 100 97 94 91 88 84 80 76 74 72 70 68 68 68 66 63 63 64 61 57 56 52 42 33 35 46 43 36 32 33 35
129 133 138 137 134 131 126 123 119 114 110 107 103 100 97 93 89 84 79 76 73 70 68 65 65 65 64 61 60 59 56 53 53 49 38 26 22 27 24 22 20 17 14
116 123 136 137 134 131 128 125 122 118 114 110 106 102 98 94 89 84 80 77 73 70 68 64 63 61 60 57 56 54 51 48 48 49 39 25 14 11 6 4 4 359 356
114 120 131 132 131 131 129 126 122 119 117 112 108 104 100 94 89 83 79 76 74 70 67 63 59 57 54 51 50 51 48 46 46 46 34 19 5 359 355 354 352 349 345
121 116 129 131 129 126 123 122 121 119 116 112 107 103 99 94 89 84 79 75 72 68 64 59 55 51 49 45 43 46 45 42 44 39 26 12 355 349 349 350 351 347 346
121 109 122 130 128 125 122 118 115 117 115 111 106 101 96 93 90 86 81 77 72 67 62 56 52 48 43 39 38 39 40 38 39 31 17 6 356 351 354 357 355 352 352
107 102 100 112 119 121 120 118 115 111 112 111 106 101 96 92 88 84 78 74 69 64 59 53 49 45 42 39 37 37 35 36 35 21 8 355 354 355 355 355 352 349 346
102 103 100 102 104 105 111 115 113 109 104 103 101 96 92 87 83 80 74 71 66 61 56 50 46 44 42 40 37 35 32 29 23 11 359 352 354 352 349 347 345 344 339
116 108 108 104 102 105 106 108 105 103 99 94 92 93 87 78 74 72 70 68 64 60 56 51 46 44 42 40 38 35 31 25 17 8 358 355 353 348 344 341 340 339 334
154 141 126 116 108 104 101 97 93 91 91 89 88 87 84 79 74 72 68 65 63 59 56 50 45 41 38 34 31 30 28 22 19 6 2 1 357 351 347 343 343 339 334
161 151 141 130 116 110 104 101 94 93 89 88 90 89 86 80 73 67 60 54 51 50 47 42 39 35 35 33 29 26 22 20 15 7 1 2 360 354 349 345 343 342 340
160 160 152 138 124 116 113 108 104 98 94 89 91 94 90 80 71 66 61 54 50 48 45 40 38 32 32 30 30 28 23 18 10 4 2 4 360 355 352 351 348 345 342
168 168 162 149 139 129 118 114 111 107 106 106 99 95 98 92 83 74 66 60 52 48 46 40 38 33 30 25 24 26 20 12 6 4 360 2 3 1 358 354 350 346 341
178 175 165 157 146 135 132 129 124 120 117 111 103 100 101 101 96 86 73 61 48 43 44 46 38 36 27 25 18 15 9 3 2 1 359 1 4 2 360 355 351 345 341
180 174 170 163 149 144 141 136 130 128 125 116 111 109 104 105 104 95 84 66 45 41 46 46 37 36 28 19 3 1 7 1 357 355 355 0 360 359 359 356 353 347 342
174 172 173 168 157 153 145 136 129 129 125 121 121 116 110 110 110 99 84 63 46 51 51 43 25 20 12 3 349 341 348 352 351 351 354 358 359 357 354 355 353 348 342
178 174 172 167 162 158 144 130 125 124 122 125 124 119 118 114 113 107 95 67 62 62 52 32 25 23 2 352 340 336 336 337 335 347 354 354 353 355 352 348 348 346 342
178 174 172 166 161 148 132 117 108 107 107 113 125 129 126 120 116 108 98 75 69 66 36 29 21 13 358 334 334 337 327 321 331 335 325 340 348 347 347 345 345 340 339
176 175 175 169 164 153 147 147 147 160 159 150 131 136 135 127 123 113 98 83 72 72 52 34 28 18 7 351 4 345 333 324 325 315 318 329 336 336 341 341 339 334 331
183 183 179 176 170 169 167 159 146 142 151 164 150 131 144 140 135 124 121 116 96 79 49 34 42 31 3 12 32 6 345 337 336 313 310 304 312 329 332 330 329 326 323
186 185 183 180 175 170 155 133 110 92 82 99 158 177 193 171 156 137 140 138 136 132 164 312 72 77 2 1 38 95 28 301 316 303 288 294 305 311 309 316 319 318 318
192 185 180 176 172 167 157 157 156 162 173 192 185 193 203 173 159 150 151 150 151 158 201 254 12 238 147 331 344 6 219 234 289 310 309 298 299 297 297 308 311 312 313
184 179 176 170 169 166 165 167 165 165 166 155 146 157 170 179 158 159 158 149 163 191 224 252 291 258 199 225 256 272 293 287 249 268 298 308 308 290 288 293 295 304 310
172 169 168 166 169 168 167 168 171 167 159 151 158 166 180 210 226 192 155 156 185 212 229 241 242 239 240 242 258 256 259 267 280 276 287 302 306 303 298 290 290 297 306
Height
1504 1507 1510 1513 1515 1517 1519 1520 1522 1523 1524 1525 1526 1527 1528 1529 1530 1530 1531 1531 1532 1532 1533 1533 1533 1533 1534 1534 1534 1534 1534 1534 1534 1534 1534 1534 1535 1535 1535 1535 1535 1535 1535
1503 1506 1510 1512 1515 1517 1519 1520 1522 1523 1525 1526 1527 1528 1528 1529 1530 1530 1531 1531 1532 1532 1533 1533 1533 1533 1534 1534 1534 1534 1534 1534 1534 1534 1534 1534 1534 1534 1534 1535 1535 1535 1535
1503 1506 1509 1512 1515 1517 1519 1520 1522 1523 1525 1526 1527 1528 1529 1529 1530 1531 1531 1531 1532 1532 1532 1533 1533 1533 1533 1533 1533 1533 1534 1533 1533 1533 1533 1534 1534 1534 1534 1534 1534 1534 1534
1503 1506 1509 1512 1514 1517 1519 1520 1522 1523 1525 1526 1527 1528 1528 1529 1530 1530 1531 1531 1532 1532 1532 1532 1532 1532 1533 1533 1533 1533 1533 1533 1533 1533 1533 1533 1533 1533 1533 1533 1533 1533 1533
1503 1506 1509 1512 1514 1516 1518 1520 1522 1523 1524 1525 1526 1527 1528 1529 1529 1530 1530 1531 1531 1531 1532 1532 1532 1532 1532 1532 1532 1532 1532 1532 1532 1532 1532 1532 1532 1532 1532 1532 1532 1532 1531
1503 1506 1509 1511 1514 1516 1518 1520 1521 1523 1524 1525 1526 1527 1528 1528 1529 1529 1530 1530 1531 1531 1531 1531 1531 1531 1531 1531 1531 1531 1531 1531 1531 1531 1531 1531 1531 1531 1531 1530 1530 1530 1530
1503 1506 1509 1511 1513 1515 1518 1519 1521 1522 1524 1525 1526 1527 1527 1528 1529 1529 1529 1530 1530 1530 1530 1530 1530 1530 1530 1530 1530 1530 1530 1530 1530 1530 1530 1530 1530 1529 1529 1529 1528 1528 1528
1504 1506 1509 1511 1513 1515 1517 1519 1520 1522 1523 1524 1525 1526 1527 1528 1528 1528 1529 1529 1529 1529 1529 1529 1529 1529 1529 1529 1529 1529 1529 1529 1529 1529 1528 1528 1528 1528 1527 1527 1527 1526 1526
1504 1506 1509 1511 1513 1515 1517 1518 1520 1521 1523 1524 1525 1526 1527 1527 1528 1528 1528 1528 1528 1528 1528 1528 1528 1528 1528 1528 1528 1528 1527 1527 1527 1527 1527 1527 1526 1526 1526 1525 1525 1524 1524
1504 1506 1508 1510 1512 1514 1516 1518 1519 1521 1522 1523 1525 1525 1526 1527 1527 1527 1527 1527 1528 1527 1527 1527 1527 1527 1527 1526 1526 1526 1526 1526 1526 1526 1525 1525 1525 1524 1523 1523 1522 1522 1521
1503 1505 1507 1509 1511 1514 1515 1517 1519 1520 1522 1523 1524 1525 1526 1526 1526 1527 1527 1527 1527 1527 1526 1526 1526 1526 1525 1525 1525 1525 1525 1524 1524 1524 1523 1523 1522 1522 1521 1520 1520 1519 1518
1501 1504 1506 1509 1511 1513 1515 1516 1518 1520 1521 1522 1523 1524 1525 1525 1526 1526 1526 1526 1526 1526 1526 1525 1525 1525 1524 1524 1524 1524 1523 1523 1522 1522 1522 1521 1520 1519 1518 1518 1517 1516 1515
1500 1503 1505 1508 1510 1512 1514 1516 1517 1519 1520 1521 1522 1523 1524 1524 1525 1525 1525 1525 1525 1525 1525 1524 1524 1524 1523 1523 1522 1522 1522 1521 1521 1520 1519 1519 1518 1517 1516 1515 1514 1513 1512
1499 1502 1504 1507 1509 1511 1513 1515 1516 1518 1519 1520 1521 1522 1523 1523 1524 1524 1524 1524 1524 1524 1523 1523 1523 1522 1522 1522 1521 1520 1520 1519 1519 1518 1517 1516 1515 1515 1513 1512 1511 1510 1509
1497 1500 1503 1505 1508 1510 1512 1514 1515 1517 1518 1519 1520 1521 1522 1522 1522 1523 1523 1523 1523 1523 1522 1522 1521 1521 1521 1520 1519 1519 1518 1517 1517 1516 1515 1514 1513 1512 1511 1509 1508 1507 1505
1495 1499 1501 1504 1507 1509 1511 1512 1514 1516 1517 1518 1519 1520 1521 1521 1521 1521 1522 1522 1521 1521 1521 1520 1520 1520 1519 1518 1518 1517 1516 1516 1515 1514 1513 1511 1510 1509 1507 1506 1505 1503 1502
1494 1497 1500 1503 1505 1507 1509 1511 1513 1514 1516 1517 1518 1519 1519 1520 1520 1520 1520 1520 1520 1520 1519 1519 1519 1518 1517 1517 1516 1515 1514 1513 1512 1511 1510 1509 1507 1506 1505 1503 1501 1499 1498
1492 1495 1498 1501 1503 1506 1508 1510 1511 1513 1514 1516 1517 1518 1518 1518 1519 1519 1519 1519 1519 1518 1518 1517 1517 1516 1515 1514 1513 1512 1512 1511 1510 1508 1507 1506 1505 1503 1502 1500 1497 1495 1493
1490 1493 1496 1498 1501 1504 1506 1508 1510 1511 1513 1514 1515 1516 1517 1517 1517 1517 1517 1517 1517 1517 1516 1515 1515 1514 1513 1512 1511 1509 1509 1508 1507 1506 1505 1503 1502 1500 1498 1496 1494 1492 1489
1487 1490 1493 1496 1499 1501 1504 1506 1508 1509 1511 1512 1513 1514 1515 1515 1515 1516 1516 1515 1515 1515 1515 1514 1513 1512 1511 1509 1508 1507 1506 1505 1504 1503 1502 1500 1499 1497 1495 1493 1490 1488 1485
1483 1486 1490 1493 1496 1498 1500 1502 1504 1506 1508 1510 1511 1512 1513 1513 1513 1514 1514 1514 1513 1513 1513 1512 1511 1510 1509 1507 1505 1503 1502 1501 1500 1500 1499 1497 1496 1494 1492 1489 1487 1484 1481
1478 1482 1486 1489 1492 1495 1497 1500 1502 1504 1506 1508 1509 1510 1510 1511 1511 1512 1512 1512 1511 1511 1511 1510 1509 1508 1507 1506 1504 1501 1499 1498 1497 1496 1495 1493 1492 1491 1489 1486 1483 1480 1477
1473 1477 1481 1485 1488 1491 1494 1497 1499 1501 1503 1505 1506 1507 1508 1508 1509 1509 1509 1509 1509 1509 1509 1508 1507 1506 1505 1504 1504 1503 1500 1496 1493 1491 1491 1489 1488 1487 1485 1482 1479 1477 1474
1468 1472 1477 1481 1484 1488 1490 1493 1495 1497 1499 1501 1502 1504 1505 1506 1506 1507 1507 1507 1507 1507 1506 1506 1505 1505 1504 1502 1502 1501 1500 1498 1495 1489 1487 1486 1485 1483 1481 1478 1475 1472 1470
1464 1468 1473 1477 1480 1484 1487 1490 1492 1494 1497 1499 1500 1501 1502 1503 1504 1504 1504 1504 1504 1504 1504 1504 1503 1503 1502 1501 1500 1498 1497 1495 1493 1490 1483 1480 1479 1478 1476 1474 1471 1468 1465
1459 1464 1468 1472 1476 1480 1483 1486 1489 1491 1493 1495 1497 1498 1499 1500 1501 1501 1502 1502 1502 1502 1502 1501 1501 1500 1499 1498 1497 1496 1494 1492 1490 1487 1482 1477 1473 1472 1471 1469 1466 1463 1460